This demonstration page uses our WeatherBlox Daily Observations layout. Learn more.

Left ArrowRight Arrow

36.19886, -115.1175

Hourly Observations for December 13, 2015

Temp ( °F °C ) Dew Point ( °F °C ) Humidity (%) Winds ( mph kmh ) Pressure ( in mb ) Visibility ( mi km ) Precip ( " mm )
12:53 am 00:53 Clear 44 6.7 21 -6.1 40 40 Calm 30.09 1019 10 16 0.00 0.00
1:53 am 01:53 Clear 41 5 21 -6.1 45 45 N 6 9 30.09 1019 10 16 0.00 0.00
2:53 am 02:53 Clear 39 3.9 21 -6.1 48 48 NNW 6 9 30.09 1019 10 16 0.00 0.00
3:53 am 03:53 Clear 42 5.6 22 -5.6 45 45 NNW 8 13 30.08 1019 10 16 0.00 0.00
4:53 am 04:53 Clear 38 3.3 22 -5.6 52 52 NW 5 7 30.08 1019 10 16 0.00 0.00
5:53 am 05:53 Clear 39 3.9 22 -5.6 50 50 WNW 5 7 30.08 1019 10 16 0.00 0.00
6:53 am 06:53 Sunny 38 3.3 22 -5.6 52 52 Calm 30.09 1019 10 16 0.00 0.00
7:53 am 07:53 Sunny 40 4.4 23 -5 51 51 N 5 7 30.09 1019 10 16 0.00 0.00
8:53 am 08:53 Sunny 45 7.2 24 -4.4 44 44 Calm 30.08 1019 10 16 0.00 0.00
9:53 am 09:53 Sunny 47 8.3 22 -5.6 37 37 SSE 3 6 30.06 1018 10 16 0.00 0.00
10:53 am 10:53 Sunny 50 10 22 -5.6 33 33 E 7 11 30.01 1016 10 16 0.00 0.00
11:53 am 11:53 Sunny 51 10.6 22 -5.6 32 32 ESE 8 13 29.97 1015 10 16 0.00 0.00
12:53 pm 12:53 Sunny 53 11.7 23 -5 31 31 E 7 11 29.92 1013 10 16 0.00 0.00
1:53 pm 13:53 Sunny 54 12.2 23 -5 30 30 S 6 9 29.86 1011 10 16 0.00 0.00
2:53 pm 14:53 Sunny 56 13.3 24 -4.4 29 29 ESE 10 17 29.83 1010 10 16 0.00 0.00
3:53 pm 15:53 Sunny 56 13.3 22 -5.6 27 27 SE 18 30 29.77 1008 10 16 0.00 0.00
4:53 pm 16:53 Clear 54 12.2 22 -5.6 29 29 SE 21 33 29.72 1007 10 16 0.00 0.00
5:53 pm 17:53 Clear 52 11.1 23 -5 32 32 VRB 3 6 29.70 1006 10 16 0.00 0.00
6:53 pm 18:53 Mostly Clear 58 14.4 28 -2.2 32 32 SSW 15 24 29.69 1005 10 16 0.00 0.00
7:53 pm 19:53 Cloudy 59 15 32 0 36 36 WSW 17 28 29.68 1005 10 16 0.00 0.00
8:53 pm 20:53 Cloudy 55 12.8 38 3.3 53 53 VRB 6 9 29.70 1006 10 16 0.00 0.00
9:53 pm 21:53 Cloudy 54 12.2 30 -1.1 40 40 WSW 23 37 29.70 1006 10 16 0.00 0.00
10:53 pm 22:53 Mostly Cloudy 53 11.7 27 -2.8 37 37 W 17 28 29.69 1006 10 16 0.00 0.00
11:51 pm 23:51 Mostly Cloudy 48 9 30 -1 50 50 NNW 28 44 29.65 1004 10 16 0.00 0.00
11:53 pm 23:53 Mostly Cloudy 49 9.4 31 -0.6 50 50 NNW 30 48 29.67 1005 10 16 0.00 0.00

Powered by AerisWeather